Theta_e
297 297 298 299 299 298 298 298 298 297 297 296 296 295 294 294 293 294 293 293 294 293
294 295 296 297 297 297 298 297 297 297 295 295 295 294 294 292 292 292 292 292 292 292
292 293 294 294 295 295 296 296 295 295 294 295 294 293 293 292 292 291 291 291 291 290
291 291 292 292 293 294 295 295 294 294 293 293 293 292 291 291 291 289 289 289 289 288
290 290 290 290 291 292 292 293 293 292 292 291 291 291 289 289 289 288 287 287 287 287
288 287 287 287 289 290 290 290 292 291 290 290 290 289 289 289 289 288 287 287 286 286
286 286 285 286 287 288 288 289 289 290 289 289 289 288 288 287 288 288 287 287 286 284
286 286 284 283 284 286 286 287 288 287 287 288 288 287 286 286 287 287 286 286 285 284
286 284 281 282 283 284 285 286 287 287 287 287 286 288 289 287 285 285 284 284 284 283
284 280 279 281 283 282 283 285 285 286 287 287 287 288 289 288 285 285 284 284 283 282
281 278 278 279 281 282 282 283 283 285 286 286 285 288 289 288 286 285 285 284 283 282
279 276 277 276 278 278 280 281 282 283 284 284 285 286 287 287 286 285 284 284 284 283
277 275 275 275 275 277 279 280 281 281 283 283 283 285 286 286 286 284 284 283 282 283
275 274 274 273 274 274 275 276 278 279 281 282 283 283 285 286 285 285 284 282 282 281
Wind_Speed
12 9 10 11 11 10 10 11 15 16 17 18 17 16 15 13 14 15 15 17 12 8
12 12 12 15 12 10 12 10 14 15 17 18 19 19 18 14 16 16 16 15 14 11
15 15 13 13 14 14 14 14 13 14 15 17 18 18 19 15 15 16 13 12 15 13
15 15 14 13 14 14 14 14 14 14 15 16 18 18 18 19 17 18 17 15 16 17
13 15 15 15 15 14 15 14 14 14 15 15 17 18 19 20 18 19 19 17 16 17
14 15 15 15 14 13 13 14 14 14 15 15 16 18 19 20 20 20 20 19 19 17
15 14 14 14 13 13 12 12 13 14 15 15 16 17 18 19 19 19 18 19 20 20
13 14 15 14 14 14 12 10 12 13 15 15 15 12 17 17 19 20 18 18 19 20
12 13 16 15 15 14 14 12 11 12 14 17 12 19 24 21 17 19 18 19 18 17
10 12 14 15 14 15 16 14 14 14 14 16 16 21 24 27 17 16 18 20 18 16
12 15 16 15 14 13 13 14 13 14 14 14 13 22 23 25 19 18 19 20 21 21
10 13 16 17 18 17 15 15 14 14 14 14 14 22 23 19 16 19 20 18 19 20
11 12 14 16 17 16 15 17 14 15 15 16 16 19 23 21 13 18 15 15 17 25
14 15 14 16 15 16 17 17 16 16 15 16 15 15 21 23 16 14 13 13 13 13
Wind_Direction
317 295 282 267 262 253 237 230 222 216 219 219 214 212 209 204 204 206 207 205 205 200
350 324 301 293 273 257 250 247 232 219 217 219 216 212 206 211 207 205 205 206 200 202
3 355 329 307 291 273 261 248 237 226 217 220 220 215 212 212 212 207 207 206 204 202
358 360 355 338 312 293 279 262 240 225 221 220 218 217 216 214 208 207 208 207 204 205
352 352 353 353 341 317 292 274 257 243 225 222 220 219 221 217 210 205 209 207 206 207
344 347 346 344 340 334 309 283 270 253 239 228 220 221 218 222 221 209 208 204 205 204
336 338 333 327 328 328 320 299 280 263 251 242 230 224 223 221 222 223 217 209 204 199
329 330 328 326 327 324 322 310 293 278 264 250 235 229 225 222 221 222 218 217 212 209
320 330 328 322 322 324 319 316 303 283 268 260 244 236 233 222 221 218 220 216 213 212
314 321 318 315 316 320 320 318 310 295 279 270 260 247 236 229 229 220 220 216 211 207
311 317 318 315 309 309 307 305 299 291 279 272 271 263 251 236 228 230 226 220 214 208
302 308 308 307 309 311 306 303 300 297 289 277 268 267 264 244 233 232 233 226 220 212
289 291 291 297 298 299 296 295 293 286 279 271 268 263 262 253 237 234 229 229 224 219
290 292 289 292 292 293 291 289 284 280 275 265 256 256 252 252 248 235 229 223 218 218